Year,Month,Day,Hour,Minute,Value (Times are PST for temperature in C)
2018,07,16,00,00,20.60
2018,07,16,00,01,20.70
2018,07,16,00,02,20.90
2018,07,16,00,03,21.00
2018,07,16,00,04,21.20
2018,07,16,00,05,21.30
2018,07,16,00,06,21.30
2018,07,16,00,07,21.40
2018,07,16,00,08,21.40
2018,07,16,00,09,21.40
2018,07,16,00,10,21.40
2018,07,16,00,11,21.40
2018,07,16,00,12,21.30
2018,07,16,00,13,21.30
2018,07,16,00,14,21.30
2018,07,16,00,15,21.30
2018,07,16,00,16,21.30
2018,07,16,00,17,21.20
2018,07,16,00,18,21.20
2018,07,16,00,19,21.10
2018,07,16,00,20,21.10
2018,07,16,00,21,21.10
2018,07,16,00,22,21.10
2018,07,16,00,23,21.10
2018,07,16,00,24,21.00
2018,07,16,00,25,21.00
2018,07,16,00,26,20.90
2018,07,16,00,27,20.90
2018,07,16,00,28,20.90
2018,07,16,00,29,20.90
2018,07,16,00,30,20.80
2018,07,16,00,31,20.80
2018,07,16,00,32,20.80
2018,07,16,00,33,20.70
2018,07,16,00,34,20.70
2018,07,16,00,35,20.60
2018,07,16,00,36,20.60
2018,07,16,00,37,20.50
2018,07,16,00,38,20.50
2018,07,16,00,39,20.40
2018,07,16,00,40,20.40
2018,07,16,00,41,20.30
2018,07,16,00,42,20.30
2018,07,16,00,43,20.20
2018,07,16,00,44,20.20
2018,07,16,00,45,20.10
2018,07,16,00,46,20.10
2018,07,16,00,47,20.00
2018,07,16,00,48,20.00
2018,07,16,00,49,19.90
2018,07,16,00,50,19.90
2018,07,16,00,51,19.90
2018,07,16,00,52,19.90
2018,07,16,00,53,19.80
2018,07,16,00,54,19.80
2018,07,16,00,55,19.80
2018,07,16,00,56,19.70
2018,07,16,00,57,19.70
2018,07,16,00,58,19.70
2018,07,16,00,59,19.70
2018,07,16,01,00,19.70
2018,07,16,01,01,19.70
2018,07,16,01,02,19.60
2018,07,16,01,03,19.60
2018,07,16,01,04,19.60
2018,07,16,01,05,19.60
2018,07,16,01,06,19.60
2018,07,16,01,07,19.60
2018,07,16,01,08,19.50
2018,07,16,01,09,19.50
2018,07,16,01,10,19.50
2018,07,16,01,11,19.50
2018,07,16,01,12,19.50
2018,07,16,01,13,19.50
2018,07,16,01,14,19.50
2018,07,16,01,15,19.50
2018,07,16,01,16,19.50
2018,07,16,01,17,19.50
2018,07,16,01,18,19.40
2018,07,16,01,19,19.40
2018,07,16,01,20,19.40
2018,07,16,01,21,19.40
2018,07,16,01,22,19.40
2018,07,16,01,23,19.40
2018,07,16,01,24,19.40
2018,07,16,01,25,19.30
2018,07,16,01,26,19.30
2018,07,16,01,27,19.30
2018,07,16,01,28,19.30
2018,07,16,01,29,19.30
2018,07,16,01,30,19.30
2018,07,16,01,31,19.30
2018,07,16,01,32,19.30
2018,07,16,01,33,19.30
2018,07,16,01,34,19.30
2018,07,16,01,35,19.30
2018,07,16,01,36,19.20
2018,07,16,01,37,19.20
2018,07,16,01,38,19.20
2018,07,16,01,39,19.10
2018,07,16,01,40,19.10
2018,07,16,01,41,19.10
2018,07,16,01,42,19.00
2018,07,16,01,43,19.00
2018,07,16,01,44,19.10
2018,07,16,01,45,19.10
2018,07,16,01,46,19.00
2018,07,16,01,47,19.00
2018,07,16,01,48,19.00
2018,07,16,01,49,19.00
2018,07,16,01,50,19.00
2018,07,16,01,51,19.00
2018,07,16,01,52,19.00
2018,07,16,01,53,19.00
2018,07,16,01,54,19.00
2018,07,16,01,55,18.90
2018,07,16,01,56,18.90
2018,07,16,01,57,18.90
2018,07,16,01,58,18.90
2018,07,16,01,59,18.90
2018,07,16,02,00,18.90
2018,07,16,02,01,18.90
2018,07,16,02,02,18.90
2018,07,16,02,03,18.90
2018,07,16,02,04,18.80
2018,07,16,02,05,18.80
2018,07,16,02,06,18.80
2018,07,16,02,07,18.80
2018,07,16,02,08,18.70
2018,07,16,02,09,18.70
2018,07,16,02,10,18.70
2018,07,16,02,11,18.60
2018,07,16,02,12,18.60
2018,07,16,02,13,18.50
2018,07,16,02,14,18.40
2018,07,16,02,15,18.40
2018,07,16,02,16,18.30
2018,07,16,02,17,18.30
2018,07,16,02,18,18.30
2018,07,16,02,19,18.20
2018,07,16,02,20,18.20
2018,07,16,02,21,18.10
2018,07,16,02,22,18.10
2018,07,16,02,23,18.10
2018,07,16,02,24,18.10
2018,07,16,02,25,18.10
2018,07,16,02,26,18.10
2018,07,16,02,27,18.10
2018,07,16,02,28,18.10
2018,07,16,02,29,18.10
2018,07,16,02,30,18.10
2018,07,16,02,31,18.10
2018,07,16,02,32,18.10
2018,07,16,02,33,18.00
2018,07,16,02,34,18.00
2018,07,16,02,35,18.00
2018,07,16,02,36,17.90
2018,07,16,02,37,17.90
2018,07,16,02,38,17.90
2018,07,16,02,39,17.90
2018,07,16,02,40,17.80
2018,07,16,02,41,17.80
2018,07,16,02,42,17.80
2018,07,16,02,43,17.70
2018,07,16,02,44,17.70
2018,07,16,02,45,17.70
2018,07,16,02,46,17.70
2018,07,16,02,47,17.70
2018,07,16,02,48,17.70
2018,07,16,02,49,17.70
2018,07,16,02,50,17.70
2018,07,16,02,51,17.70
2018,07,16,02,52,17.70
2018,07,16,02,53,17.70
2018,07,16,02,54,17.70
2018,07,16,02,55,17.70
2018,07,16,02,56,17.70
2018,07,16,02,57,17.70
2018,07,16,02,58,17.70
2018,07,16,02,59,17.70
2018,07,16,03,00,17.60
2018,07,16,03,01,17.60
2018,07,16,03,02,17.60
2018,07,16,03,03,17.60
2018,07,16,03,04,17.70
2018,07,16,03,05,17.70
2018,07,16,03,06,17.80
2018,07,16,03,07,17.80
2018,07,16,03,08,17.80
2018,07,16,03,09,17.90
2018,07,16,03,10,17.90
2018,07,16,03,11,17.80
2018,07,16,03,12,17.80
2018,07,16,03,13,17.80
2018,07,16,03,14,17.80
2018,07,16,03,15,17.80
2018,07,16,03,16,17.70
2018,07,16,03,17,17.70
2018,07,16,03,18,17.60
2018,07,16,03,19,17.60
2018,07,16,03,20,17.50
2018,07,16,03,21,17.50
2018,07,16,03,22,17.40
2018,07,16,03,23,17.40
2018,07,16,03,24,17.40
2018,07,16,03,25,17.30
2018,07,16,03,26,17.30
2018,07,16,03,27,17.30
2018,07,16,03,28,17.30
2018,07,16,03,29,17.30
2018,07,16,03,30,17.30
2018,07,16,03,31,17.20
2018,07,16,03,32,17.20
2018,07,16,03,33,17.20
2018,07,16,03,34,17.20
2018,07,16,03,35,17.10
2018,07,16,03,36,17.10
2018,07,16,03,37,17.10
2018,07,16,03,38,17.10
2018,07,16,03,39,17.10
2018,07,16,03,40,17.10
2018,07,16,03,41,17.00
2018,07,16,03,42,17.00
2018,07,16,03,43,17.00
2018,07,16,03,44,16.90
2018,07,16,03,45,16.90
2018,07,16,03,46,16.80
2018,07,16,03,47,16.80
2018,07,16,03,48,16.80
2018,07,16,03,49,16.70
2018,07,16,03,50,16.70
2018,07,16,03,51,16.70
2018,07,16,03,52,16.70
2018,07,16,03,53,16.60
2018,07,16,03,54,16.60
2018,07,16,03,55,16.50
2018,07,16,03,56,16.40
2018,07,16,03,57,16.30
2018,07,16,03,58,16.30
2018,07,16,03,59,16.30
2018,07,16,04,00,16.20
2018,07,16,04,01,16.20
2018,07,16,04,02,16.20
2018,07,16,04,03,16.10
2018,07,16,04,04,16.10
2018,07,16,04,05,16.00
2018,07,16,04,06,16.00
2018,07,16,04,07,15.90
2018,07,16,04,08,15.90
2018,07,16,04,09,15.90
2018,07,16,04,10,15.80
2018,07,16,04,11,15.80
2018,07,16,04,12,15.80
2018,07,16,04,13,15.80
2018,07,16,04,14,15.70
2018,07,16,04,15,15.70
2018,07,16,04,16,15.70
2018,07,16,04,17,15.70
2018,07,16,04,18,15.60
2018,07,16,04,19,15.60
2018,07,16,04,20,15.60
2018,07,16,04,21,15.60
2018,07,16,04,22,15.60
2018,07,16,04,23,15.70
2018,07,16,04,24,15.70
2018,07,16,04,25,15.70
2018,07,16,04,26,15.70
2018,07,16,04,27,15.80
2018,07,16,04,28,15.80
2018,07,16,04,29,15.80
2018,07,16,04,30,15.80
2018,07,16,04,31,15.90
2018,07,16,04,32,15.90
2018,07,16,04,33,15.90
2018,07,16,04,34,15.90
2018,07,16,04,35,15.90
2018,07,16,04,36,15.90
2018,07,16,04,37,15.90
2018,07,16,04,38,15.90
2018,07,16,04,39,15.90
2018,07,16,04,40,15.90
2018,07,16,04,41,15.80
2018,07,16,04,42,15.80
2018,07,16,04,43,15.80
2018,07,16,04,44,15.70
2018,07,16,04,45,15.70
2018,07,16,04,46,15.70
2018,07,16,04,47,15.70
2018,07,16,04,48,15.70
2018,07,16,04,49,15.70
2018,07,16,04,50,15.70
2018,07,16,04,51,15.70
2018,07,16,04,52,15.60
2018,07,16,04,53,15.60
2018,07,16,04,54,15.60
2018,07,16,04,55,15.60
2018,07,16,04,56,15.60
2018,07,16,04,57,15.50
2018,07,16,04,58,15.50
2018,07,16,04,59,15.50
2018,07,16,05,00,15.40
2018,07,16,05,01,15.40
2018,07,16,05,02,15.40
2018,07,16,05,03,15.40
2018,07,16,05,04,15.40
2018,07,16,05,05,15.50
2018,07,16,05,06,15.50
2018,07,16,05,07,15.50
2018,07,16,05,08,15.60
2018,07,16,05,09,15.60
2018,07,16,05,10,15.60
2018,07,16,05,11,15.50
2018,07,16,05,12,15.50
2018,07,16,05,13,15.50
2018,07,16,05,14,15.50
2018,07,16,05,15,15.50
2018,07,16,05,16,15.40
2018,07,16,05,17,15.40
2018,07,16,05,18,15.40
2018,07,16,05,19,15.40
2018,07,16,05,20,15.40
2018,07,16,05,21,15.40
2018,07,16,05,22,15.40
2018,07,16,05,23,15.40
2018,07,16,05,24,15.40
2018,07,16,05,25,15.40
2018,07,16,05,26,15.40
2018,07,16,05,27,15.40
2018,07,16,05,28,15.40
2018,07,16,05,29,15.40
2018,07,16,05,30,15.40
2018,07,16,05,31,15.40
2018,07,16,05,32,15.50
2018,07,16,05,33,15.40
2018,07,16,05,34,15.40
2018,07,16,05,35,15.40
2018,07,16,05,36,15.50
2018,07,16,05,37,15.50
2018,07,16,05,38,15.50
2018,07,16,05,39,15.50
2018,07,16,05,40,15.50
2018,07,16,05,41,15.50
2018,07,16,05,42,15.50
2018,07,16,05,43,15.50
2018,07,16,05,44,15.50
2018,07,16,05,45,15.50
2018,07,16,05,46,15.50
2018,07,16,05,47,15.50
2018,07,16,05,48,15.60
2018,07,16,05,49,15.60
2018,07,16,05,50,15.60
2018,07,16,05,51,15.60
2018,07,16,05,52,15.60
2018,07,16,05,53,15.60
2018,07,16,05,54,15.60
2018,07,16,05,55,15.70
2018,07,16,05,56,15.70
2018,07,16,05,57,15.70
2018,07,16,05,58,15.70
2018,07,16,05,59,15.70
2018,07,16,06,00,15.70
2018,07,16,06,01,15.70
2018,07,16,06,02,15.80
2018,07,16,06,03,15.80
2018,07,16,06,04,15.80
2018,07,16,06,05,15.80
2018,07,16,06,06,15.80
2018,07,16,06,07,15.80
2018,07,16,06,08,15.90
2018,07,16,06,09,15.90
2018,07,16,06,10,15.90
2018,07,16,06,11,15.90
2018,07,16,06,12,15.90
2018,07,16,06,13,15.90
2018,07,16,06,14,15.90
2018,07,16,06,15,15.90
2018,07,16,06,16,15.90
2018,07,16,06,17,15.90
2018,07,16,06,18,16.00
2018,07,16,06,19,16.00
2018,07,16,06,20,16.00
2018,07,16,06,21,16.00
2018,07,16,06,22,16.10
2018,07,16,06,23,16.10
2018,07,16,06,24,16.10
2018,07,16,06,25,16.10
2018,07,16,06,26,16.20
2018,07,16,06,27,16.20
2018,07,16,06,28,16.20
2018,07,16,06,29,16.30
2018,07,16,06,30,16.30
2018,07,16,06,31,16.30
2018,07,16,06,32,16.30
2018,07,16,06,33,16.30
2018,07,16,06,34,16.40
2018,07,16,06,35,16.40
2018,07,16,06,36,16.50
2018,07,16,06,37,16.50
2018,07,16,06,38,16.60
2018,07,16,06,39,16.60
2018,07,16,06,40,16.60
2018,07,16,06,41,16.70
2018,07,16,06,42,16.70
2018,07,16,06,43,16.70
2018,07,16,06,44,16.80
2018,07,16,06,45,16.80
2018,07,16,06,46,16.90
2018,07,16,06,47,17.00
2018,07,16,06,48,17.10
2018,07,16,06,49,17.10
2018,07,16,06,50,17.20
2018,07,16,06,51,17.30
2018,07,16,06,52,17.40
2018,07,16,06,53,17.40
2018,07,16,06,54,17.40
2018,07,16,06,55,17.50
2018,07,16,06,56,17.50
2018,07,16,06,57,17.60
2018,07,16,06,58,17.60
2018,07,16,06,59,17.70
2018,07,16,07,00,17.80
2018,07,16,07,01,17.80
2018,07,16,07,02,17.90
2018,07,16,07,03,17.90
2018,07,16,07,04,18.00
2018,07,16,07,05,18.10
2018,07,16,07,06,18.20
2018,07,16,07,07,18.30
2018,07,16,07,08,18.30
2018,07,16,07,09,18.40
2018,07,16,07,10,18.50
2018,07,16,07,11,18.60
2018,07,16,07,12,18.70
2018,07,16,07,13,18.80
2018,07,16,07,14,18.80
2018,07,16,07,15,18.90
2018,07,16,07,16,19.00
2018,07,16,07,17,19.10
2018,07,16,07,18,19.10
2018,07,16,07,19,19.20
2018,07,16,07,20,19.20
2018,07,16,07,21,19.30
2018,07,16,07,22,19.30
2018,07,16,07,23,19.40
2018,07,16,07,24,19.50
2018,07,16,07,25,19.60
2018,07,16,07,26,19.70
2018,07,16,07,27,19.80
2018,07,16,07,28,19.90
2018,07,16,07,29,20.00
2018,07,16,07,30,20.10
2018,07,16,07,31,20.20
2018,07,16,07,32,20.30
2018,07,16,07,33,20.40
2018,07,16,07,34,20.40
2018,07,16,07,35,20.50
2018,07,16,07,36,20.60
2018,07,16,07,37,20.70
2018,07,16,07,38,20.70
2018,07,16,07,39,20.80
2018,07,16,07,40,21.00
2018,07,16,07,41,21.20
2018,07,16,07,42,21.40
2018,07,16,07,43,21.60
2018,07,16,07,44,21.70
2018,07,16,07,45,21.80
2018,07,16,07,46,21.80
2018,07,16,07,47,21.80
2018,07,16,07,48,21.90
2018,07,16,07,49,21.90
2018,07,16,07,50,22.00
2018,07,16,07,51,22.10
2018,07,16,07,52,22.20
2018,07,16,07,53,22.30
2018,07,16,07,54,22.40
2018,07,16,07,55,22.60
2018,07,16,07,56,22.70
2018,07,16,07,57,22.80
2018,07,16,07,58,22.90
2018,07,16,07,59,23.00
2018,07,16,08,00,23.00
2018,07,16,08,01,23.00
2018,07,16,08,02,22.90
2018,07,16,08,03,22.90
2018,07,16,08,04,22.80
2018,07,16,08,05,22.80
2018,07,16,08,06,22.80
2018,07,16,08,07,22.90
2018,07,16,08,08,22.90
2018,07,16,08,09,22.90
2018,07,16,08,10,23.00
2018,07,16,08,11,22.90
2018,07,16,08,12,22.90
2018,07,16,08,13,22.80
2018,07,16,08,14,22.70
2018,07,16,08,15,22.40
2018,07,16,08,16,22.30
2018,07,16,08,17,22.30
2018,07,16,08,18,22.20
2018,07,16,08,19,22.30
2018,07,16,08,20,22.30
2018,07,16,08,21,22.30
2018,07,16,08,22,22.30
2018,07,16,08,23,22.30
2018,07,16,08,24,22.40
2018,07,16,08,25,22.40
2018,07,16,08,26,22.40
2018,07,16,08,27,22.40
2018,07,16,08,28,22.40
2018,07,16,08,29,22.40
2018,07,16,08,30,22.30
2018,07,16,08,31,22.20
2018,07,16,08,32,22.10
2018,07,16,08,33,21.90
2018,07,16,08,34,21.70
2018,07,16,08,35,21.70
2018,07,16,08,36,21.60
2018,07,16,08,37,21.50
2018,07,16,08,38,21.60
2018,07,16,08,39,21.60
2018,07,16,08,40,21.60
2018,07,16,08,41,21.50
2018,07,16,08,42,21.30
2018,07,16,08,43,21.20
2018,07,16,08,44,21.10
2018,07,16,08,45,21.10
2018,07,16,08,46,21.00
2018,07,16,08,47,20.90
2018,07,16,08,48,20.90
2018,07,16,08,49,20.80
2018,07,16,08,50,20.80
2018,07,16,08,51,20.80
2018,07,16,08,52,20.80
2018,07,16,08,53,20.80
2018,07,16,08,54,20.90
2018,07,16,08,55,21.00
2018,07,16,08,56,21.00
2018,07,16,08,57,20.90
2018,07,16,08,58,20.90
2018,07,16,08,59,20.80
2018,07,16,09,00,20.90
2018,07,16,09,01,20.90
2018,07,16,09,02,20.90
2018,07,16,09,03,20.80
2018,07,16,09,04,20.80
2018,07,16,09,05,20.80
2018,07,16,09,06,20.80
2018,07,16,09,07,20.90
2018,07,16,09,08,21.00
2018,07,16,09,09,21.20
2018,07,16,09,10,21.20
2018,07,16,09,11,21.20
2018,07,16,09,12,21.20
2018,07,16,09,13,21.30
2018,07,16,09,14,21.40
2018,07,16,09,15,21.60
2018,07,16,09,16,21.80
2018,07,16,09,17,22.00
2018,07,16,09,18,22.10
2018,07,16,09,19,22.20
2018,07,16,09,20,22.30
2018,07,16,09,21,22.30
2018,07,16,09,22,22.30
2018,07,16,09,23,22.20
2018,07,16,09,24,22.00
2018,07,16,09,25,21.90
2018,07,16,09,26,21.60
2018,07,16,09,27,21.40
2018,07,16,09,28,21.30
2018,07,16,09,29,21.20
2018,07,16,09,30,21.20
2018,07,16,09,31,21.30
2018,07,16,09,32,21.40
2018,07,16,09,33,21.60
2018,07,16,09,34,21.60
2018,07,16,09,35,21.70
2018,07,16,09,36,21.90
2018,07,16,09,37,22.10
2018,07,16,09,38,22.20
2018,07,16,09,39,22.20
2018,07,16,09,40,22.20
2018,07,16,09,41,22.30
2018,07,16,09,42,22.30
2018,07,16,09,43,22.50
2018,07,16,09,44,22.60
2018,07,16,09,45,22.70
2018,07,16,09,46,22.70
2018,07,16,09,47,22.60
2018,07,16,09,48,22.60
2018,07,16,09,49,22.50
2018,07,16,09,50,22.30
2018,07,16,09,51,22.20
2018,07,16,09,52,22.10
2018,07,16,09,53,22.10
2018,07,16,09,54,22.10
2018,07,16,09,55,22.10
2018,07,16,09,56,22.20
2018,07,16,09,57,22.10
2018,07,16,09,58,22.00
2018,07,16,09,59,21.90
2018,07,16,10,00,21.70
2018,07,16,10,01,21.50
2018,07,16,10,02,21.40
2018,07,16,10,03,21.30
2018,07,16,10,04,21.40
2018,07,16,10,05,21.60
2018,07,16,10,06,21.70
2018,07,16,10,07,21.80
2018,07,16,10,08,22.00
2018,07,16,10,09,22.10
2018,07,16,10,10,22.10
2018,07,16,10,11,22.20
2018,07,16,10,12,22.40
2018,07,16,10,13,22.50
2018,07,16,10,14,22.70
2018,07,16,10,15,22.80
2018,07,16,10,16,23.00
2018,07,16,10,17,22.90
2018,07,16,10,18,22.70
2018,07,16,10,19,22.70
2018,07,16,10,20,22.70
2018,07,16,10,21,22.70
2018,07,16,10,22,22.60
2018,07,16,10,23,22.60
2018,07,16,10,24,22.70
2018,07,16,10,25,22.80
2018,07,16,10,26,22.90
2018,07,16,10,27,22.90
2018,07,16,10,28,23.00
2018,07,16,10,29,23.00
2018,07,16,10,30,23.00
2018,07,16,10,31,23.10
2018,07,16,10,32,23.20
2018,07,16,10,33,23.30
2018,07,16,10,34,23.50
2018,07,16,10,35,23.60
2018,07,16,10,36,23.70
2018,07,16,10,37,23.80
2018,07,16,10,38,23.80
2018,07,16,10,39,23.90
2018,07,16,10,40,24.00
2018,07,16,10,41,23.80
2018,07,16,10,42,23.60
2018,07,16,10,43,23.50
2018,07,16,10,44,23.50
2018,07,16,10,45,23.50
2018,07,16,10,46,23.60
2018,07,16,10,47,23.60
2018,07,16,10,48,23.70
2018,07,16,10,49,23.70
2018,07,16,10,50,23.60
2018,07,16,10,51,23.50
2018,07,16,10,52,23.60
2018,07,16,10,53,23.70
2018,07,16,10,54,23.80
2018,07,16,10,55,23.80
2018,07,16,10,56,23.80
2018,07,16,10,57,23.80
2018,07,16,10,58,23.80
2018,07,16,10,59,23.80
2018,07,16,11,00,23.80
2018,07,16,11,01,23.80
2018,07,16,11,02,23.90
2018,07,16,11,03,23.80
2018,07,16,11,04,23.80
2018,07,16,11,05,23.60
2018,07,16,11,06,23.60
2018,07,16,11,07,23.80
2018,07,16,11,08,24.00
2018,07,16,11,09,24.00
2018,07,16,11,10,23.90
2018,07,16,11,11,23.90
2018,07,16,11,12,23.90
2018,07,16,11,13,23.80
2018,07,16,11,14,23.90
2018,07,16,11,15,24.00
2018,07,16,11,16,24.00
2018,07,16,11,17,24.00
2018,07,16,11,18,23.90
2018,07,16,11,19,23.90
2018,07,16,11,20,23.80
2018,07,16,11,21,23.90
2018,07,16,11,22,24.00
2018,07,16,11,23,24.10
2018,07,16,11,24,24.20
2018,07,16,11,25,24.10
2018,07,16,11,26,23.90
2018,07,16,11,27,23.80
2018,07,16,11,28,23.70
2018,07,16,11,29,23.60
2018,07,16,11,30,23.60
2018,07,16,11,31,23.50
2018,07,16,11,32,23.50
2018,07,16,11,33,23.60
2018,07,16,11,34,23.70
2018,07,16,11,35,23.80
2018,07,16,11,36,23.90
2018,07,16,11,37,23.90
2018,07,16,11,38,24.00
2018,07,16,11,39,24.10
2018,07,16,11,40,24.10
2018,07,16,11,41,24.10
2018,07,16,11,42,24.20
2018,07,16,11,43,24.10
2018,07,16,11,44,24.10
2018,07,16,11,45,24.20
2018,07,16,11,46,24.30
2018,07,16,11,47,24.50
2018,07,16,11,48,24.60
2018,07,16,11,49,24.60
2018,07,16,11,50,24.50
2018,07,16,11,51,24.50
2018,07,16,11,52,24.50
2018,07,16,11,53,24.40
2018,07,16,11,54,24.30
2018,07,16,11,55,24.30
2018,07,16,11,56,24.30
2018,07,16,11,57,24.30
2018,07,16,11,58,24.40
2018,07,16,11,59,24.40
2018,07,16,12,00,24.40
2018,07,16,12,01,24.40
2018,07,16,12,02,24.40
2018,07,16,12,03,24.40
2018,07,16,12,04,24.30
2018,07,16,12,05,23.80
2018,07,16,12,06,23.50
2018,07,16,12,07,23.30
2018,07,16,12,08,23.20
2018,07,16,12,09,23.20
2018,07,16,12,10,23.40
2018,07,16,12,11,23.50
2018,07,16,12,12,23.60
2018,07,16,12,13,23.60
2018,07,16,12,14,23.70
2018,07,16,12,15,23.80
2018,07,16,12,16,23.90
2018,07,16,12,17,24.00
2018,07,16,12,18,24.10
2018,07,16,12,19,24.10
2018,07,16,12,20,24.00
2018,07,16,12,21,24.10
2018,07,16,12,22,24.00
2018,07,16,12,23,23.90
2018,07,16,12,24,23.80
2018,07,16,12,25,23.90
2018,07,16,12,26,24.10
2018,07,16,12,27,24.20
2018,07,16,12,28,24.40
2018,07,16,12,29,24.60
2018,07,16,12,30,24.80
2018,07,16,12,31,24.70
2018,07,16,12,32,24.70
2018,07,16,12,33,24.80
2018,07,16,12,34,24.80
2018,07,16,12,35,24.80
2018,07,16,12,36,24.80
2018,07,16,12,37,24.70
2018,07,16,12,38,24.70
2018,07,16,12,39,24.50
2018,07,16,12,40,24.40
2018,07,16,12,41,24.10
2018,07,16,12,42,23.90
2018,07,16,12,43,23.80
2018,07,16,12,44,23.90
2018,07,16,12,45,23.90
2018,07,16,12,46,24.00
2018,07,16,12,47,24.10
2018,07,16,12,48,24.20
2018,07,16,12,49,24.10
2018,07,16,12,50,24.20
2018,07,16,12,51,24.30
2018,07,16,12,52,24.30
2018,07,16,12,53,24.30
2018,07,16,12,54,24.50
2018,07,16,12,55,24.80
2018,07,16,12,56,25.00
2018,07,16,12,57,25.00
2018,07,16,12,58,25.00
2018,07,16,12,59,24.80
2018,07,16,13,00,24.70
2018,07,16,13,01,24.60
2018,07,16,13,02,24.60
2018,07,16,13,03,24.60
2018,07,16,13,04,24.70
2018,07,16,13,05,24.80
2018,07,16,13,06,24.90
2018,07,16,13,07,25.00
2018,07,16,13,08,25.20
2018,07,16,13,09,25.20
2018,07,16,13,10,25.10
2018,07,16,13,11,24.80
2018,07,16,13,12,24.60
2018,07,16,13,13,24.50
2018,07,16,13,14,24.60
2018,07,16,13,15,24.60
2018,07,16,13,16,24.60
2018,07,16,13,17,24.50
2018,07,16,13,18,24.40
2018,07,16,13,19,24.40
2018,07,16,13,20,24.60
2018,07,16,13,21,24.60
2018,07,16,13,22,24.60
2018,07,16,13,23,24.60
2018,07,16,13,24,24.60
2018,07,16,13,25,24.60
2018,07,16,13,26,24.70
2018,07,16,13,27,24.80
2018,07,16,13,28,25.00
2018,07,16,13,29,25.20
2018,07,16,13,30,25.50
2018,07,16,13,31,25.70
2018,07,16,13,32,25.90
2018,07,16,13,33,26.00
2018,07,16,13,34,26.10
2018,07,16,13,35,26.10
2018,07,16,13,36,26.10
2018,07,16,13,37,26.10
2018,07,16,13,38,26.00
2018,07,16,13,39,25.90
2018,07,16,13,40,25.80
2018,07,16,13,41,25.80
2018,07,16,13,42,25.70
2018,07,16,13,43,25.50
2018,07,16,13,44,25.10
2018,07,16,13,45,25.00
2018,07,16,13,46,25.10
2018,07,16,13,47,25.20
2018,07,16,13,48,25.30
2018,07,16,13,49,25.30
2018,07,16,13,50,25.40
2018,07,16,13,51,25.30
2018,07,16,13,52,25.40
2018,07,16,13,53,25.60
2018,07,16,13,54,25.80
2018,07,16,13,55,26.20
2018,07,16,13,56,26.40
2018,07,16,13,57,26.70
2018,07,16,13,58,26.90
2018,07,16,13,59,27.00
2018,07,16,14,00,27.10
2018,07,16,14,01,27.30
2018,07,16,14,02,27.30
2018,07,16,14,03,27.40
2018,07,16,14,04,27.50
2018,07,16,14,05,27.60
2018,07,16,14,06,27.60
2018,07,16,14,07,27.60
2018,07,16,14,08,27.70
2018,07,16,14,09,27.60
2018,07,16,14,10,27.50
2018,07,16,14,11,27.40
2018,07,16,14,12,27.30
2018,07,16,14,13,27.30
2018,07,16,14,14,27.20
2018,07,16,14,15,27.10
2018,07,16,14,16,27.20
2018,07,16,14,17,27.30
2018,07,16,14,18,27.40
2018,07,16,14,19,27.50
2018,07,16,14,20,27.50
2018,07,16,14,21,27.50
2018,07,16,14,22,27.60
2018,07,16,14,23,27.60
2018,07,16,14,24,27.80
2018,07,16,14,25,27.90
2018,07,16,14,26,28.10
2018,07,16,14,27,28.10
2018,07,16,14,28,28.20
2018,07,16,14,29,28.40
2018,07,16,14,30,28.40
2018,07,16,14,31,28.40
2018,07,16,14,32,28.40
2018,07,16,14,33,28.40
2018,07,16,14,34,28.40
2018,07,16,14,35,28.20
2018,07,16,14,36,28.10
2018,07,16,14,37,28.00
2018,07,16,14,38,28.10
2018,07,16,14,39,28.10
2018,07,16,14,40,28.10
2018,07,16,14,41,28.00
2018,07,16,14,42,28.00
2018,07,16,14,43,27.90
2018,07,16,14,44,27.80
2018,07,16,14,45,27.70
2018,07,16,14,46,27.70
2018,07,16,14,47,27.50
2018,07,16,14,48,27.40
2018,07,16,14,49,27.30
2018,07,16,14,50,27.30
2018,07,16,14,51,27.50
2018,07,16,14,52,27.60
2018,07,16,14,53,27.80
2018,07,16,14,54,28.00
2018,07,16,14,55,28.10
2018,07,16,14,56,28.20
2018,07,16,14,57,28.10
2018,07,16,14,58,28.00
2018,07,16,14,59,27.90
2018,07,16,15,00,28.00
2018,07,16,15,01,28.00
2018,07,16,15,02,28.00
2018,07,16,15,03,28.00
2018,07,16,15,04,28.00
2018,07,16,15,05,28.10
2018,07,16,15,06,28.20
2018,07,16,15,07,28.20
2018,07,16,15,08,28.30
2018,07,16,15,09,28.40
2018,07,16,15,10,28.40
2018,07,16,15,11,28.40
2018,07,16,15,12,28.30
2018,07,16,15,13,28.30
2018,07,16,15,14,28.30
2018,07,16,15,15,28.30
2018,07,16,15,16,28.20
2018,07,16,15,17,28.20
2018,07,16,15,18,28.20
2018,07,16,15,19,28.20
2018,07,16,15,20,28.30
2018,07,16,15,21,28.30
2018,07,16,15,22,28.10
2018,07,16,15,23,28.00
2018,07,16,15,24,28.10
2018,07,16,15,25,28.10
2018,07,16,15,26,28.10
2018,07,16,15,27,27.90
2018,07,16,15,28,27.90
2018,07,16,15,29,27.90
2018,07,16,15,30,28.00
2018,07,16,15,31,27.90
2018,07,16,15,32,27.70
2018,07,16,15,33,27.50
2018,07,16,15,34,27.50
2018,07,16,15,35,27.60
2018,07,16,15,36,27.50
2018,07,16,15,37,27.60
2018,07,16,15,38,27.80
2018,07,16,15,39,28.10
2018,07,16,15,40,28.40
2018,07,16,15,41,28.70
2018,07,16,15,42,28.80
2018,07,16,15,43,29.00
2018,07,16,15,44,29.20
2018,07,16,15,45,29.30
2018,07,16,15,46,29.20
2018,07,16,15,47,29.20
2018,07,16,15,48,29.20
2018,07,16,15,49,29.20
2018,07,16,15,50,29.20
2018,07,16,15,51,29.10
2018,07,16,15,52,29.10
2018,07,16,15,53,29.00
2018,07,16,15,54,29.00
2018,07,16,15,55,28.90
2018,07,16,15,56,28.80
2018,07,16,15,57,28.70
2018,07,16,15,58,28.60
2018,07,16,15,59,28.50
2018,07,16,16,00,28.60
2018,07,16,16,01,28.60
2018,07,16,16,02,28.60
2018,07,16,16,03,28.60
2018,07,16,16,04,28.60
2018,07,16,16,05,28.40
2018,07,16,16,06,28.30
2018,07,16,16,07,28.30
2018,07,16,16,08,28.30
2018,07,16,16,09,28.50
2018,07,16,16,10,28.60
2018,07,16,16,11,28.70
2018,07,16,16,12,28.70
2018,07,16,16,13,28.80
2018,07,16,16,14,28.80
2018,07,16,16,15,29.00
2018,07,16,16,16,29.10
2018,07,16,16,17,29.10
2018,07,16,16,18,29.00
2018,07,16,16,19,29.00
2018,07,16,16,20,28.80
2018,07,16,16,21,28.50
2018,07,16,16,22,28.20
2018,07,16,16,23,27.90
2018,07,16,16,24,27.70
2018,07,16,16,25,27.60
2018,07,16,16,26,27.60
2018,07,16,16,27,27.80
2018,07,16,16,28,27.80
2018,07,16,16,29,27.80
2018,07,16,16,30,27.90
2018,07,16,16,31,28.00
2018,07,16,16,32,28.10
2018,07,16,16,33,28.30
2018,07,16,16,34,28.40
2018,07,16,16,35,28.50
2018,07,16,16,36,28.40
2018,07,16,16,37,28.40
2018,07,16,16,38,28.30
2018,07,16,16,39,28.30
2018,07,16,16,40,28.50
2018,07,16,16,41,28.60
2018,07,16,16,42,28.70
2018,07,16,16,43,28.80
2018,07,16,16,44,28.70
2018,07,16,16,45,28.50
2018,07,16,16,46,28.40
2018,07,16,16,47,28.50
2018,07,16,16,48,28.50
2018,07,16,16,49,28.50
2018,07,16,16,50,28.30
2018,07,16,16,51,28.20
2018,07,16,16,52,28.00
2018,07,16,16,53,27.90
2018,07,16,16,54,27.90
2018,07,16,16,55,27.70
2018,07,16,16,56,27.60
2018,07,16,16,57,27.60
2018,07,16,16,58,27.50
2018,07,16,16,59,27.50
2018,07,16,17,00,27.50
2018,07,16,17,01,27.60
2018,07,16,17,02,27.60
2018,07,16,17,03,27.70
2018,07,16,17,04,27.70
2018,07,16,17,05,27.70
2018,07,16,17,06,27.80
2018,07,16,17,07,27.80
2018,07,16,17,08,27.80
2018,07,16,17,09,27.80
2018,07,16,17,10,27.90
2018,07,16,17,11,28.00
2018,07,16,17,12,28.10
2018,07,16,17,13,28.20
2018,07,16,17,14,28.40
2018,07,16,17,15,28.40
2018,07,16,17,16,28.40
2018,07,16,17,17,28.40
2018,07,16,17,18,28.40
2018,07,16,17,19,28.60